Weather History for K3MW - March, 2013

Change the Weather History Date:

Friday, March 8, 2013

  Actual Average Record
Temperature  
Mean Temperature 34 °F -  
Max Temperature 39 °F - - ()
Min Temperature 28 °F - - ()
Degree Days  
Heating Degree Days 32    
Moisture  
Dew Point 9 °F    
Average Humidity 41    
Maximum Humidity 93    
Minimum Humidity 22    
Precipitation  
Precipitation 0.00 in - - ()
Sea Level Pressure  
Sea Level Pressure 29.73 in    
Wind  
Wind Speed 14 mph (SSE)    
Max Wind Speed 29 mph    
Max Gust Speed 37 mph    
Visibility 9 miles    
Events Snow    
T = Trace of Precipitation, MM = Missing Value Source: NWS Daily Summary

Daily Weather History Graph

Daily Weather History Graph

Search for Another Location

Airport or City:

Trip Planner

Search our weather history database for the weather conditions in past years. The results will help you decide how hot, cold, wet, or windy it might be!

Date:

Astronomy

Mar. 08, 2013 Rise Set
Actual Time 6:29 AM MST 6:06 PM MST
Civil Twilight 6:02 AM MST 6:33 PM MST
Nautical Twilight 5:30 AM MST 7:05 PM MST
Astronomical Twilight 4:58 AM MST 7:37 PM MST
Moon 4:16 AM MST (3/8) 3:04 PM MST (3/8)
Length of Visible Light 12h 31m
Length of Day
11h 37m
Waning Crescent, 11% of the Moon is Illuminated
Mar 8
Waning Crescent
Mar 11
New
Mar 19
First Quarter
Mar 27
Full
Apr 2
Last Quarter

Hourly Weather History & Observations

Time (MST) Temp. Windchill Dew Point Humidity Pressure Visibility Wind Dir Wind Speed Gust Speed Precip Events Conditions
12:11 AM 35.6 °F 25.2 °F 3.2 °F 26% 29.88 in 10.0 mi South 18.4 mph 28.8 mph N/A   Scattered Clouds
12:30 AM 35.6 °F 25.5 °F 1.4 °F 24% 29.89 in 10.0 mi South 17.3 mph 25.3 mph N/A   Mostly Cloudy
12:50 AM 33.8 °F 23.5 °F -0.4 °F 23% 29.88 in 10.0 mi SSE 16.1 mph 19.6 mph N/A   Mostly Cloudy
1:10 AM 33.8 °F 22.5 °F -0.4 °F 23% 29.87 in 10.0 mi SSE 19.6 mph 25.3 mph N/A   Overcast
1:31 AM 33.8 °F 23.9 °F 1.4 °F 25% 29.87 in 10.0 mi SSE 15.0 mph - N/A   Scattered Clouds
1:50 AM 33.8 °F 26.4 °F 3.2 °F 28% 29.87 in 10.0 mi ESE 9.2 mph - N/A   Scattered Clouds
2:10 AM 33.8 °F 23.5 °F 3.2 °F 28% 29.86 in 10.0 mi SE 16.1 mph 21.9 mph N/A   Clear
2:31 AM 33.8 °F 23.5 °F 1.4 °F 25% 29.84 in 10.0 mi SE 16.1 mph 21.9 mph N/A   Clear
2:50 AM 33.8 °F 23.5 °F 1.4 °F 25% 29.83 in 10.0 mi SE 16.1 mph 21.9 mph N/A   Clear
3:10 AM 33.8 °F 23.2 °F -0.4 °F 23% 29.83 in 10.0 mi SE 17.3 mph 31.1 mph N/A   Clear
3:30 AM 33.8 °F 21.6 °F -0.4 °F 23% 29.81 in 10.0 mi SE 23.0 mph 29.9 mph N/A   Clear
3:50 AM 33.8 °F 22.5 °F -2.2 °F 22% 29.82 in 10.0 mi SSE 19.6 mph 31.1 mph N/A   Clear
4:11 AM 33.8 °F 22.8 °F -0.4 °F 23% 29.82 in 10.0 mi SSE 18.4 mph 29.9 mph N/A   Clear
4:31 AM 33.8 °F 22.8 °F -0.4 °F 23% 29.83 in 10.0 mi SSE 18.4 mph 25.3 mph N/A   Clear
4:51 AM 32.0 °F 20.8 °F -0.4 °F 25% 29.83 in 10.0 mi SSE 17.3 mph 24.2 mph N/A   Clear
5:11 AM 32.0 °F 20.5 °F -0.4 °F 25% 29.83 in 10.0 mi SSE 18.4 mph 28.8 mph N/A   Mostly Cloudy
5:30 AM 32.0 °F 19.8 °F -0.4 °F 25% 29.82 in 10.0 mi SSE 20.7 mph 27.6 mph N/A   Mostly Cloudy
5:51 AM 32.0 °F 20.5 °F -0.4 °F 25% 29.83 in 10.0 mi SSE 18.4 mph 26.5 mph N/A   Scattered Clouds
6:10 AM 32.0 °F 19.5 °F -2.2 °F 23% 29.82 in 10.0 mi SE 21.9 mph 26.5 mph N/A   Scattered Clouds
6:31 AM 32.0 °F 19.5 °F -0.4 °F 25% 29.83 in 10.0 mi SSE 21.9 mph 28.8 mph N/A   Scattered Clouds
6:50 AM 32.0 °F 19.2 °F -2.2 °F 23% 29.81 in 10.0 mi SE 23.0 mph 29.9 mph N/A   Scattered Clouds
7:10 AM 32.0 °F 18.6 °F 1.4 °F 27% 29.81 in 10.0 mi SSE 25.3 mph 32.2 mph N/A   Mostly Cloudy
7:50 AM 32.0 °F 18.6 °F 1.4 °F 27% 29.81 in 10.0 mi SSE 25.3 mph 32.2 mph N/A   Overcast
8:10 AM 32.0 °F 18.4 °F 3.2 °F 30% 29.79 in 10.0 mi SSE 26.5 mph 34.5 mph N/A   Overcast
8:31 AM 32.0 °F 18.4 °F 5.0 °F 32% 29.80 in 10.0 mi SE 26.5 mph 34.5 mph N/A   Overcast
8:51 AM 32.0 °F 17.9 °F 5.0 °F 32% 29.80 in 10.0 mi SSE 28.8 mph 36.8 mph N/A   Overcast
9:09 AM 32.0 °F 20.1 °F 5.0 °F 32% 29.81 in 10.0 mi SSE 19.6 mph 34.5 mph N/A   Overcast
9:30 AM 33.8 °F 23.5 °F 5.0 °F 30% 29.81 in 10.0 mi South 16.1 mph 26.5 mph N/A   Overcast
9:49 AM 33.8 °F 24.8 °F 5.0 °F 30% 29.81 in 10.0 mi SSE 12.7 mph 23.0 mph N/A   Mostly Cloudy
10:10 AM 33.8 °F 24.8 °F 5.0 °F 30% 29.79 in 10.0 mi SSE 12.7 mph 21.9 mph N/A   Scattered Clouds
10:29 AM 35.6 °F 29.2 °F 5.0 °F 28% 29.79 in 10.0 mi South 8.1 mph 21.9 mph N/A   Clear
10:49 AM 35.6 °F 30.7 °F 5.0 °F 28% 29.78 in 10.0 mi SSE 5.8 mph 18.4 mph N/A   Clear
11:09 AM 35.6 °F 28.0 °F 5.0 °F 28% 29.77 in 10.0 mi SSE 10.4 mph 16.1 mph N/A   Clear
11:31 AM 35.6 °F 31.7 °F 5.0 °F 28% 29.76 in 10.0 mi SSE 4.6 mph - N/A   Clear
11:51 AM 37.4 °F 30.3 °F 5.0 °F 26% 29.75 in 10.0 mi SSE 10.4 mph - N/A   Clear
12:11 PM 37.4 °F 32.1 °F 5.0 °F 26% 29.74 in 10.0 mi SW 6.9 mph - N/A   Clear
12:35 PM 39.2 °F 33.0 °F 3.2 °F 22% 29.72 in 10.0 mi SSE 9.2 mph - N/A   Clear
12:55 PM 37.4 °F 32.8 °F 3.2 °F 24% 29.71 in 10.0 mi SW 5.8 mph - N/A   Clear
1:15 PM 37.4 °F 34.9 °F 5.0 °F 26% 29.70 in 10.0 mi WSW 3.5 mph - N/A   Scattered Clouds
1:35 PM 37.4 °F 33.8 °F 5.0 °F 26% 29.69 in 10.0 mi WNW 4.6 mph - N/A   Scattered Clouds
1:55 PM 37.4 °F 32.8 °F 5.0 °F 26% 29.68 in 10.0 mi WNW 5.8 mph - N/A   Mostly Cloudy
2:15 PM 37.4 °F 30.8 °F 5.0 °F 26% 29.68 in 10.0 mi WNW 9.2 mph - N/A   Overcast
2:35 PM 37.4 °F 32.1 °F 5.0 °F 26% 29.67 in 10.0 mi WNW 6.9 mph - N/A   Overcast
2:55 PM 37.4 °F 31.4 °F 5.0 °F 26% 29.67 in 10.0 mi WNW 8.1 mph - N/A   Overcast
3:15 PM 37.4 °F 32.1 °F 5.0 °F 26% 29.67 in 10.0 mi WNW 6.9 mph - N/A   Mostly Cloudy
3:35 PM 35.6 °F 29.2 °F 5.0 °F 28% 29.67 in 10.0 mi West 8.1 mph - N/A   Mostly Cloudy
3:55 PM 33.8 °F 28.6 °F 8.6 °F 35% 29.66 in 10.0 mi West 5.8 mph - N/A   Overcast
4:15 PM 33.8 °F 27.7 °F 10.4 °F 38% 29.66 in 10.0 mi West 6.9 mph - N/A   Overcast
4:35 PM 33.8 °F 28.6 °F 12.2 °F 41% 29.65 in 10.0 mi WNW 5.8 mph - N/A   Overcast
4:55 PM 32.0 °F 27.5 °F 14.0 °F 48% 29.66 in 10.0 mi SW 4.6 mph - N/A   Overcast
5:15 PM 32.0 °F - 14.0 °F 48% 29.65 in 10.0 mi Calm Calm - N/A   Overcast
5:35 PM 32.0 °F 27.5 °F 14.0 °F 48% 29.65 in 10.0 mi WNW 4.6 mph - N/A   Overcast
5:55 PM 32.0 °F 27.5 °F 14.0 °F 48% 29.65 in 10.0 mi WNW 4.6 mph - N/A   Overcast
6:15 PM 32.0 °F 27.5 °F 14.0 °F 48% 29.64 in 10.0 mi NW 4.6 mph - N/A   Overcast
6:35 PM 32.0 °F 27.5 °F 14.0 °F 48% 29.63 in 10.0 mi NW 4.6 mph - N/A   Overcast
6:55 PM 30.2 °F 25.4 °F 15.8 °F 55% 29.63 in 10.0 mi WNW 4.6 mph - N/A   Overcast
7:15 PM 30.2 °F - 19.4 °F 64% 29.63 in 5.0 mi Calm Calm - N/A Snow Light Snow
7:35 PM 30.2 °F - 19.4 °F 64% 29.63 in 10.0 mi Calm Calm - N/A   Overcast
7:55 PM 30.2 °F - 19.4 °F 64% 29.62 in 5.0 mi Calm Calm - N/A Snow Light Snow
8:15 PM 30.2 °F - 21.2 °F 69% 29.62 in 1.8 mi Calm Calm - N/A Snow Light Snow
8:35 PM 30.2 °F - 23.0 °F 75% 29.61 in 1.0 mi Calm Calm - N/A Snow Snow
8:55 PM 28.4 °F 22.2 °F 24.8 °F 86% 29.61 in 5.0 mi SE 5.8 mph - N/A Snow Light Snow
9:15 PM 30.2 °F 24.3 °F 26.6 °F 86% 29.61 in 1.2 mi East 5.8 mph - N/A Snow Light Snow
9:35 PM 30.2 °F 21.9 °F 26.6 °F 86% 29.60 in 2.5 mi NE 9.2 mph - N/A Snow Light Snow
9:55 PM 30.2 °F 22.6 °F 26.6 °F 86% 29.59 in 10.0 mi ENE 8.1 mph 16.1 mph N/A   Overcast
10:15 PM 28.4 °F 19.1 °F 26.6 °F 93% 29.58 in 5.0 mi NE 10.4 mph 16.1 mph N/A   Overcast
10:35 PM 28.4 °F 19.1 °F 26.6 °F 93% 29.58 in 1.2 mi ENE 10.4 mph 17.3 mph N/A   Overcast
10:55 PM 28.4 °F 22.2 °F 26.6 °F 93% 29.57 in 3.0 mi NE 5.8 mph - N/A   Overcast
11:15 PM 28.4 °F 22.2 °F 26.6 °F 93% 29.57 in 1.2 mi NE 5.8 mph - N/A   Overcast
11:35 PM 28.4 °F 19.1 °F 24.8 °F 86% 29.56 in 7.0 mi NE 10.4 mph - N/A   Overcast
11:55 PM 28.4 °F 20.4 °F 24.8 °F 86% 29.55 in 1.0 mi NE 8.1 mph 17.3 mph N/A   Overcast